Anchorage, AK

8:07 PM AKST on February 10, 2016 (GMT -0900)
Lake Hood

Weather History for PALH - October, 2013

Change the Weather History Date:

Saturday, October 12, 2013

  Actual Average Record
Temperature  
Mean Temperature 49 °F -  
Max Temperature 54 °F 40 °F 54 °F (2013)
Min Temperature 44 °F 29 °F 23 °F (1997)
Degree Days  
Heating Degree Days 16    
Moisture  
Dew Point 39 °F    
Average Humidity 70    
Maximum Humidity 82    
Minimum Humidity 53    
Precipitation  
Precipitation 0.00 in - - ()
Sea Level Pressure  
Sea Level Pressure 29.78 in    
Wind  
Wind Speed 6 mph (NW)    
Max Wind Speed 14 mph    
Max Gust Speed 25 mph    
Visibility 10 miles    
Events      
Averages and records for this station are not official NWS values.
T = Trace of Precipitation, MM = Missing Value Source: NWS Daily Summary

Daily Weather History Graph

Daily Weather History Graph

Search for Another Location

Airport or City:

Trip Planner

Search our weather history database for the weather conditions in past years. The results will help you decide how hot, cold, wet, or windy it might be!

Date:

Astronomy

Oct. 12, 2013 Rise Set
Actual Time 8:35 AM AKDT 6:55 PM AKDT
Civil Twilight 7:51 AM AKDT 7:39 PM AKDT
Nautical Twilight 7:01 AM AKDT 8:28 PM AKDT
Astronomical Twilight 6:10 AM AKDT 9:19 PM AKDT
Moon 4:43 PM AKDT (10/12) 12:07 AM AKDT (10/12)
Length of Visible Light 11h 47m
Length of Day
10h 20m
First Quarter, 60% of the Moon is Illuminated
Oct 12
First Quarter
Oct 18
Full
Oct 26
Last Quarter
Nov 3
New
Nov 9
First Quarter

Hourly Weather History & Observations

Time (AKDT) Temp. Windchill Dew Point Humidity Pressure Visibility Wind Dir Wind Speed Gust Speed Precip Events Conditions
12:53 AM 52.0 °F - 35.1 °F 53% 29.84 in 10.0 mi Calm Calm - N/A   Overcast
1:53 AM 51.1 °F - 36.0 °F 56% 29.84 in 10.0 mi SSE 8.1 mph - N/A   Overcast
2:53 AM 50.0 °F - 36.0 °F 59% 29.83 in 10.0 mi South 10.4 mph - N/A   Overcast
3:53 AM 48.0 °F - 37.0 °F 66% 29.83 in 10.0 mi ENE 6.9 mph - N/A   Overcast
4:53 AM 46.9 °F - 37.9 °F 71% 29.83 in 10.0 mi NNW 9.2 mph - N/A   Overcast
5:53 AM 45.0 °F 41.8 °F 37.9 °F 76% 29.83 in 10.0 mi West 5.8 mph - N/A   Overcast
6:53 AM 44.1 °F 40.1 °F 39.0 °F 82% 29.81 in 10.0 mi NNW 6.9 mph - N/A   Overcast
7:53 AM 44.1 °F - 39.0 °F 82% 29.81 in 10.0 mi Calm Calm - N/A   Overcast
8:53 AM 44.1 °F 39.0 °F 39.0 °F 82% 29.79 in 10.0 mi WNW 9.2 mph - N/A   Overcast
9:53 AM 44.1 °F 38.1 °F 39.0 °F 82% 29.78 in 10.0 mi NW 11.5 mph - N/A   Overcast
10:53 AM 51.1 °F - 37.0 °F 59% 29.80 in 10.0 mi South 9.2 mph 19.6 mph N/A   Overcast
11:53 AM 46.0 °F 41.9 °F 39.0 °F 76% 29.81 in 10.0 mi NE 8.1 mph - N/A   Overcast
12:53 PM 46.9 °F - 39.9 °F 77% 29.82 in 10.0 mi NW 3.5 mph - N/A   Overcast
1:53 PM 53.1 °F - 37.0 °F 55% 29.80 in 10.0 mi South 13.8 mph 25.3 mph N/A   Mostly Cloudy
2:53 PM 54.0 °F - 37.0 °F 53% 29.80 in 10.0 mi South 8.1 mph - N/A   Mostly Cloudy
3:53 PM 52.0 °F - 37.9 °F 59% 29.78 in 10.0 mi Variable 5.8 mph - N/A   Partly Cloudy
4:53 PM 50.0 °F - 41.0 °F 71% 29.77 in 10.0 mi Calm Calm - N/A   Overcast
5:53 PM 48.9 °F - 41.0 °F 74% 29.76 in 10.0 mi Calm Calm - N/A   Overcast
6:53 PM 48.9 °F - 39.9 °F 71% 29.75 in 10.0 mi NNW 5.8 mph - N/A   Overcast
7:53 PM 46.9 °F - 41.0 °F 80% 29.73 in 10.0 mi NW 5.8 mph - N/A   Overcast
8:53 PM 46.9 °F - 39.0 °F 74% 29.72 in 10.0 mi NNE 3.5 mph - N/A   Partly Cloudy
9:53 PM 46.9 °F - 39.9 °F 77% 29.70 in 10.0 mi WNW 8.1 mph - N/A   Mostly Cloudy
10:53 PM 46.9 °F - 39.0 °F 74% 29.68 in 10.0 mi North 5.8 mph - N/A   Mostly Cloudy
11:53 PM 45.0 °F 41.2 °F 39.9 °F 82% 29.66 in 10.0 mi WSW 6.9 mph - N/A   Scattered Clouds